[[{"header":{"parameterUnit":"m.s-1","parameterCategory":1,"la1":30.2991,"la2":30.254,"lo1":-89.0895,"lo2":-89.0444,"dy":0.0017,"dx":0.0017,"nx":28,"ny":28,"refTime":"2024-03-01T03:00:00:Z","depth":0,"parameterNumber":2,"parameterNumberName":"U-component_of_WINDS"},"data":[0,0,0,0,0,0,0,0,0,0,0,0,0,0,0,0,0,0,0,0,0,0,0,0,0,0,0,0,0,0,0,0,0,0,0,0,0,0,0,0,0,0,0,0,0,0,0,0,0,0,0,0,0,0,0,0,0,0,-3.8864,-3.8866,0,-3.9094,-3.9097,-3.9099,-3.9173,-3.9172,-3.9171,-3.917,-3.9408,-3.9416,-3.9423,0,0,0,0,0,0,0,0,0,0,0,0,0,-3.849,-3.8496,-3.8863,-3.8866,-3.8869,-3.9094,-3.9097,-3.91,-3.9173,-3.9172,-3.917,-3.9169,-3.9406,-3.9415,-3.9424,0,0,0,0,0,0,0,0,0,0,0,0,0,-3.8679,-3.8499,-3.8863,-3.8933,-3.8941,-3.9093,-3.9097,-3.9101,-3.9173,-3.9172,-3.917,-3.9169,-3.9403,-3.9414,-3.9425,-3.9525,0,0,-3.9458,-3.9463,0,0,0,0,0,0,0,0,-3.8669,-3.8693,-3.8919,-3.8928,-3.8938,-3.9103,-3.9053,-3.9243,-3.9174,-3.9085,-3.917,-3.9168,-3.9308,-3.9327,-3.9374,-3.9536,-3.9546,-3.9459,-3.9466,-3.9471,-3.9474,0,0,0,0,0,0,0,-3.8655,-3.8684,-3.8955,-3.8923,-3.8934,-3.8954,-3.8979,-3.9089,-3.9203,-3.9093,-3.9099,-3.9125,-3.9313,-3.9363,-3.938,-3.955,-3.9459,-3.9469,-3.9476,-3.948,-3.9807,-3.9809,0,0,0,0,0,0,-3.863,-3.8672,-3.8947,-3.8962,-3.8796,-3.8961,-3.899,-3.9052,-3.9202,-3.9223,-3.9126,-3.9127,-3.9345,-3.9367,-3.9389,-3.9517,-3.9471,-3.9481,-3.9487,-3.9805,-3.9808,-3.981,0,0,0,0,0,0,-3.8622,-3.8654,-3.8938,-3.8819,-3.8856,-3.897,-3.9039,-3.9057,-3.9107,-3.9227,-3.9248,-3.9156,-3.9345,-3.9373,-3.9491,-3.9526,-3.9486,-3.9496,-3.9803,-3.9806,-3.9809,-3.9772,0,0,0,0,0,0,-3.8611,-3.865,-3.8689,-3.8819,-3.8862,-3.9035,-3.9041,-3.9063,-3.9126,-3.913,-3.9261,-3.9281,-3.9346,-3.9474,-3.9501,-3.954,-3.9505,-3.98,-3.9804,-3.9808,-3.9771,-3.9774,-3.9776,0,0,0,0,0,-3.8597,-3.867,-3.869,-3.8723,-3.8912,-3.9037,-3.9062,-3.9134,-3.9128,-3.9168,-3.9245,-3.9277,-3.9517,-3.9485,-3.9517,-3.956,-3.9798,-3.9803,-3.9807,-3.977,-3.9773,-3.9776,0,0,0,0,0,0,-3.8542,-3.8688,-3.8712,-3.8829,-3.892,-3.9049,-3.9102,-3.9135,-3.923,-3.923,-3.9317,-3.9346,-3.9457,-3.952,-3.9482,-3.9665,-3.9659,-3.9671,-3.962,-3.9624,-3.9627,-3.9609,-3.9514,0,0,0,0,0,-3.8543,-3.863,-3.8754,-3.8845,-3.8889,-3.8987,-3.9044,-3.9092,-3.919,-3.9229,-3.9315,-3.9409,-3.9507,-3.9569,-3.9665,-3.978,-3.9811,-3.9826,-3.9828,-3.983,-3.9839,-3.9906,-3.9914,-3.9825,-3.9825,-3.9825,0,0,-3.8546,-3.8637,-3.8688,-3.8836,-3.8912,-3.9002,-3.9019,-3.9114,-3.9182,-3.9244,-3.936,-3.9426,-3.9538,-3.9654,-3.971,-3.9711,-3.987,-3.9836,-3.9836,-3.9845,-3.9911,-3.992,-3.9927,-3.9828,-3.9828,-3.9827,0,0,-3.8599,-3.8676,-3.8761,-3.8837,-3.8951,-3.9016,-3.9036,-3.9161,-3.9207,-3.9324,-3.9373,-3.9456,-3.9621,-3.9699,-3.976,-3.9842,-3.9875,-3.9871,-3.9886,-3.995,-3.9957,-3.9963,-3.9994,-4.0003,-3.988,-3.988,-3.988,0,-3.859,-3.8726,-3.88,-3.8893,-3.8957,-3.9016,-3.9104,-3.9174,-3.9314,-3.9358,-3.9356,-3.9565,-3.9644,-3.9781,-3.9801,-3.9848,-3.9875,-3.9857,-3.9949,-3.9957,-3.9964,-3.9994,-4.0005,-3.9878,-3.9879,-3.9879,-3.9879,0,-3.8709,-3.8803,-3.8858,-3.8991,-3.9062,-3.9151,-3.924,-3.9303,-3.9344,-3.941,-3.9529,-3.9626,-3.9743,-3.9779,-3.9821,-3.9923,-3.9919,-3.9932,-3.9928,-3.997,-4.0,-4.0012,-3.9877,-3.9877,-3.9877,-3.9878,0,0,-3.8734,-3.8906,-3.8925,-3.8987,-3.9117,-3.9192,-3.9284,-3.9398,-3.9451,-3.9546,-3.9626,-3.9765,-3.9778,-3.9847,-3.9899,-3.9955,-4.0015,-3.9962,-3.9966,-3.9969,-4.0134,-4.0123,-4.0135,-4.0038,-4.004,-4.0042,-4.0125,0,-3.8804,-3.897,-3.9039,-3.9174,-3.9262,-3.932,-3.9401,-3.949,-3.9554,-3.9639,-3.971,-3.9807,-3.9817,-3.9859,-3.9917,-3.9995,-4.005,-3.999,-4.0114,-4.0118,-4.0085,-4.0151,-4.014,-4.0213,-4.0137,-4.0139,-4.014,0,-3.8908,-3.9002,-3.9145,-3.9265,-3.9305,-3.9376,-3.9486,-3.9566,-3.967,-3.9712,-3.979,-3.9838,-3.9939,-3.9927,-4.0068,-4.0026,-4.0081,-4.0127,-4.0132,-4.0146,-4.0132,-4.0168,-4.0238,-4.0249,-4.0159,-4.0157,-4.0156,0,-3.8912,-3.9075,-3.9182,-3.9232,-3.9375,-3.9424,-3.9486,-3.9588,-3.9652,-3.9749,-3.9791,-3.9899,-3.9958,-4.004,-4.0117,-4.0102,-4.025,-4.0245,-4.029,-4.0288,-4.0319,-4.0316,-4.0399,-4.0353,-4.0353,-4.0352,-4.0352,0,-3.8983,-3.9069,-3.9185,-3.9251,-3.9349,-3.9429,-3.9524,-3.959,-3.968,-3.9761,-3.9818,-3.9892,-3.9989,-4.0076,-4.0137,-4.0245,-4.0271,-4.0309,-4.0324,-4.0304,-4.0299,-4.0342,-4.0339,-4.0355,-4.0355,-4.0354,-4.0354,0,-3.9005,-3.9086,-3.9207,-3.9332,-3.9366,-3.9432,-3.954,-3.9607,-3.9673,-3.9775,-3.9803,-3.9908,-4.0013,-4.0098,-4.0237,-4.0278,-4.0391,-4.0408,-4.0355,-4.0364,-4.0403,-4.0399,-4.0518,-4.0538,-4.0476,-4.0477,-4.0477,0,-3.9045,-3.9112,-3.9245,-3.9302,-3.9363,-3.9455,-3.9521,-3.9602,-3.9668,-3.9791,-3.9843,-3.9953,-4.0045,-4.0212,-4.0301,-4.0407,-4.0428,-4.0462,-4.0444,-4.0422,-4.043,-4.0425,-4.0433,-4.0464,-4.0464,-4.0465,-4.0465,0,-3.9109,-3.9146,-3.9237,-3.9343,-3.9419,-3.9507,-3.9596,-3.964,-3.9738,-3.981,-3.9918,-3.9989,-4.0131,-4.0239,-4.0355,-4.0421,-4.046,-4.047,-4.0486,-4.0467,-4.0434,-4.0453,-4.0362,-4.0467,-4.0467,-4.0466,-4.0466,-4.0466,-3.9143,-3.9205,-3.9308,-3.9408,-3.9483,-3.9565,-3.9634,-3.9708,-3.9799,-3.992,-3.9963,-4.0074,-4.0177,-4.0337,-4.0403,-4.0493,-4.0496,-4.0519,-4.0525,-4.0529,-4.0527,-4.0418,-4.0514,-4.0514,-4.0514,-4.0514,-4.0514,0,-3.921,-3.9279,-3.937,-3.9492,-3.9571,-3.9599,-3.9699,-3.9764,-3.9861,-3.9953,-4.0042,-4.0167,-4.0273,-4.037,-4.0481,-4.0534,-4.0555,-4.056,-4.0558,-4.0573,-4.0518,-4.0493,-4.0542,-4.0542,-4.0542,-4.0542,-4.0542,-4.0542,-3.9255,-3.9362,-3.9411,-3.9556,-3.9625,-3.9734,-3.9789,-3.9865,-3.9939,-4.0075,-4.0163,-4.0225,-4.032,-4.0438,-4.0536,-4.0563,-4.0601,-4.0602,-4.0633,-4.058,-4.0576,-4.0573,-4.055,-4.061,-4.061,-4.0681,-4.0681,-4.0682]},{"header":{"parameterUnit":"m.s-1","parameterCategory":1,"la1":30.2991,"la2":30.254,"lo1":-89.0895,"lo2":-89.0444,"dy":0.0017,"dx":0.0017,"nx":28,"ny":28,"refTime":"2024-03-01T03:00:00:Z","depth":0,"parameterNumber":3,"parameterNumberName":"V-component_of_WINDS"},"data":[0,0,0,0,0,0,0,0,0,0,0,0,0,0,0,0,0,0,0,0,0,0,0,0,0,0,0,0,0,0,0,0,0,0,0,0,0,0,0,0,0,0,0,0,0,0,0,0,0,0,0,0,0,0,0,0,0,0,6.8621,6.8622,0,6.8734,6.8736,6.8737,6.87,6.8698,6.8695,6.8693,6.8808,6.8813,6.8818,0,0,0,0,0,0,0,0,0,0,0,0,0,6.8373,6.8377,6.862,6.8622,6.8623,6.8734,6.8736,6.8737,6.87,6.8697,6.8695,6.8692,6.8806,6.8812,6.8819,0,0,0,0,0,0,0,0,0,0,0,0,0,6.8483,6.8379,6.862,6.8618,6.8619,6.8734,6.8736,6.8738,6.8701,6.8697,6.8694,6.869,6.8804,6.8812,6.882,6.8942,0,0,6.8844,6.8847,0,0,0,0,0,0,0,0,6.8476,6.8492,6.8617,6.8619,6.862,6.8699,6.869,6.8806,6.8702,6.867,6.8693,6.8689,6.8775,6.8785,6.8814,6.8948,6.8952,6.8845,6.885,6.8853,6.8855,0,0,0,0,0,0,0,6.8469,6.8487,6.8665,6.8619,6.8621,6.8612,6.8624,6.8712,6.8741,6.8673,6.867,6.8684,6.8775,6.8806,6.8816,6.8954,6.8844,6.8852,6.8857,6.886,6.9197,6.9201,0,0,0,0,0,0,6.846,6.8481,6.8662,6.8669,6.8538,6.862,6.8633,6.8677,6.874,6.8746,6.8687,6.8682,6.8795,6.8807,6.882,6.897,6.8853,6.886,6.8865,6.9193,6.9198,6.9203,0,0,0,0,0,0,6.8455,6.8477,6.8657,6.8574,6.8596,6.8628,6.8679,6.8682,6.8713,6.8751,6.8756,6.8714,6.8792,6.8809,6.8913,6.8973,6.8864,6.8871,6.9188,6.9195,6.92,6.9269,0,0,0,0,0,0,6.8448,6.8475,6.8522,6.8576,6.8601,6.8748,6.8682,6.8687,6.8728,6.8722,6.8778,6.8784,6.8791,6.8901,6.8921,6.8982,6.8878,6.9183,6.9191,6.9198,6.9261,6.9277,6.929,0,0,0,0,0,6.8439,6.8535,6.8524,6.8546,6.866,6.8751,6.8766,6.8772,6.8732,6.878,6.8805,6.8782,6.8964,6.8912,6.8934,6.8999,6.9179,6.9189,6.9198,6.9255,6.9274,6.9289,0,0,0,0,0,0,6.8486,6.8542,6.853,6.8647,6.8695,6.8745,6.8805,6.8791,6.8851,6.8843,6.8848,6.8861,6.8968,6.8994,6.8935,6.9122,6.9065,6.908,6.9101,6.912,6.9134,6.9125,6.8884,0,0,0,0,0,6.8511,6.858,6.8625,6.8724,6.8748,6.8773,6.8813,6.8814,6.8863,6.8883,6.8915,6.8965,6.9033,6.9078,6.9142,6.9265,6.9278,6.9321,6.9335,6.9346,6.9359,6.9428,6.9448,6.9233,6.9233,6.9233,0,0,6.8561,6.86,6.8643,6.8734,6.8771,6.8844,6.879,6.8868,6.8923,6.8895,6.8996,6.9022,6.9077,6.9191,6.9243,6.9216,6.9421,6.9358,6.9367,6.9373,6.944,6.946,6.9478,6.924,6.9239,6.9238,0,0,6.8689,6.8725,6.8812,6.8852,6.891,6.8926,6.8947,6.9,6.9017,6.9118,6.91,6.9164,6.9281,6.9322,6.9358,6.9506,6.9488,6.9527,6.9601,6.9669,6.9686,6.9701,6.9755,6.9775,6.9539,6.954,6.954,0,6.8744,6.8853,6.8858,6.894,6.8981,6.8961,6.905,6.9088,6.9164,6.9193,6.9161,6.931,6.9345,6.9471,6.9507,6.9537,6.9562,6.952,6.9683,6.9698,6.9712,6.9764,6.9785,6.9544,6.9543,6.9543,6.9543,0,6.8918,6.8994,6.9058,6.9133,6.9182,6.9266,6.9286,6.9334,6.9332,6.9352,6.9457,6.9499,6.9573,6.9603,6.96,6.9729,6.9711,6.9681,6.9624,6.9737,6.9786,6.9806,6.955,6.9549,6.9547,6.9546,0,0,6.9078,6.9158,6.9181,6.9216,6.928,6.9339,6.9424,6.9498,6.954,6.9594,6.9666,6.9767,6.9741,6.9782,6.9785,6.9844,6.9961,6.9808,6.9809,6.9836,7.0107,7.013,7.0152,6.995,6.9954,6.9957,7.0103,0,6.9212,6.9362,6.9371,6.9506,6.9578,6.9561,6.9635,6.9683,6.9705,6.9769,6.9792,6.9865,6.9824,6.985,6.9908,6.9935,7.0016,6.9924,7.0018,7.0021,7.0005,7.0178,7.0201,7.0337,7.0122,7.0125,7.0128,0,6.9389,6.945,6.9593,6.965,6.968,6.9746,6.9816,6.9878,6.9932,6.9944,6.9992,6.9987,7.0075,7.0016,7.0138,7.0075,7.0114,7.0134,7.0139,7.0148,7.0081,7.0192,7.038,7.0401,7.0158,7.0155,7.0153,0,6.9493,6.9611,6.9712,6.9743,6.9811,6.9858,6.9889,6.994,6.9985,7.0046,7.0075,7.0146,7.0184,7.0239,7.0254,7.0209,7.0377,7.0318,7.039,7.039,7.0426,7.0423,7.0623,7.045,7.045,7.0449,7.0449,0,6.9643,6.9731,6.976,6.9823,6.9922,6.9933,7.0031,7.0058,7.0105,7.0173,7.0163,7.0227,7.0242,7.031,7.0322,7.0422,7.0439,7.0452,7.0454,7.0454,7.0452,7.0479,7.047,7.0455,7.0454,7.0452,7.0452,0,6.9775,6.9798,6.9908,6.9964,6.9981,7.0052,7.01,7.0161,7.0182,7.0269,7.029,7.0323,7.0402,7.0423,7.0517,7.0525,7.0645,7.0637,7.0626,7.0626,7.0697,7.0691,7.0922,7.0954,7.0759,7.0761,7.0762,0,6.987,6.9938,7.0002,7.0048,7.0081,7.0154,7.02,7.0214,7.0263,7.0332,7.0385,7.0463,7.0527,7.0655,7.0687,7.076,7.0755,7.0831,7.0766,7.0764,7.0758,7.0754,7.0762,7.0844,7.0846,7.0847,7.0849,0,7.0035,7.0044,7.0111,7.0184,7.024,7.0297,7.0352,7.039,7.0412,7.0467,7.0549,7.0599,7.0696,7.0775,7.0849,7.0881,7.087,7.0869,7.089,7.089,7.0882,7.0889,7.0661,7.0864,7.0862,7.0861,7.086,7.086,7.0153,7.0213,7.0269,7.0345,7.0389,7.0441,7.0502,7.0531,7.06,7.0681,7.0685,7.0775,7.083,7.0929,7.0965,7.1036,7.1013,7.1042,7.105,7.1057,7.1064,7.087,7.1049,7.1049,7.1048,7.1048,7.1048,0,7.0319,7.0355,7.0425,7.0503,7.0564,7.0549,7.0609,7.0661,7.074,7.0793,7.0857,7.0952,7.1029,7.1069,7.1146,7.1195,7.1192,7.1215,7.1211,7.1219,7.108,7.1055,7.1216,7.1216,7.1216,7.1216,7.1216,7.1216,7.0413,7.0516,7.0531,7.0656,7.0691,7.0779,7.0816,7.0865,7.0907,7.1015,7.1079,7.1105,7.1154,7.1234,7.1305,7.1315,7.1344,7.137,7.1377,7.1246,7.1229,7.1212,7.1189,7.1376,7.1376,7.1511,7.1513,7.1513]}]]